Showing default

QIANFAN-42, 62243

Orbit data source: Space-Track

QIANFAN-42, 62243 is a Chinese payload satellite in LEO that was launched on Thu, 05 Dec 2024 UTC via a CHANG ZHENG 6A launch vehicle from the Taiyaun Space Center, China (TSC). Payload-class satellites include a variety of spacecraft equipped with specific instruments for various scientific and technological missions. These include communications satellites like Starlink; space stations such as the ISS; scientific satellites like the Hubble; Earth observation satellites from companies like Planet Labs, Umbra, and HawkEye 360; GPS; miniature CubeSats for education and research; and military/defense satellites.

Loading next visibility...
Identifier
62243, 2024-232G
Orbit
LEO
Country
Flag of CNCN / PRC
Related business
Manufacturer
SECM
Mission
Partially operational Commercial Communications
Bus & Motor
QIANFAN, Unknown motor
Mass
267 kg wet, ~267 kg dry
Launch date (UTC)
2024-12-05 (11 months ago)
Launch vehicle
CHANG ZHENG 6A
Launch site
Taiyaun Space Center, China (TSC)
Object type
Payload
Rocket body
Debris
Shape & HBR
Box + 1 Pan, 5.0 m
Radar Cross Section
13.200 m², Large (>1 m²)

Expand to show TLE details & history
Last TLE update: 10 hours ago

TLE from 10 hours ago
0 QIANFAN-42
1 62243U 24232G   25296.68632373  .00000865  00000-0  36780-3 0  9998
2 62243  89.0029  43.0618 0013215 243.3733 116.6107 14.24406326 94249
Epoch: 2025-10-23T16:28Z
TLE epoch observation values (Epoch: 2025-10-23T16:28:18.370Z)
Latitude
0.00007°
Longitude
123.64324°
Altitude
817.815 km
Speed
7.442 km/s
True Right ascension
02h 52m 14s
True Declination
0° 00' 00"
Sunlit
Object was in full shadow at epoch
Visualization orbit readout
Latitude
Unknown
Longitude
Unknown
Altitude
Unknown
Speed
Unknown
Apparent Right ascension
Unknown
Apparent Declination
Unknown
Sunlit
N/A
Visualization observer readout
Local Sidereal Time
21:17:43
Azimuth
Unknown
Elevation
Unknown
Doppler factor
Unknown
Orbital elements
Apogee altitude
816.93 km
Perigee altitude
797.939 km
Semi-major axis
7,185.571 km
Eccentricity
0.00132
Inclination
89.0029°
RAAN
43.0618°
Arg. of periapsis
243.3733°
True anomaly
116.74599°
Mean anomaly
116.6107°
Eccentric anomaly
116.67836°
Mean motion
3.56329 °/min
Orbital period
101.03 mins
BSTAR
0.0003678
Loading maneuver chart data...
Computing Atmospheric mass density...
Loading historical data...
Loading historical data...
Loading historical data...
Loading historical data...
Loading historical data...
Loading historical data...
Loading historical data...

Documentation

Showing up to 5 results
|